Change the Weather History Date:

Sunday, December 11, 2011

  Actual Average Record
Temperature  
Mean Temperature 76 °F -  
Max Temperature 81 °F 80 °F 87 °F (1989)
Min Temperature 70 °F 68 °F 65 °F (1989)
Cooling Degree Days 10    
Growing Degree Days 26 (Base 50)    
Moisture  
Dew Point 63 °F    
Average Humidity 64    
Maximum Humidity 73    
Minimum Humidity 52    
Precipitation  
Precipitation 0.00 in - - ()
Sea Level Pressure  
Sea Level Pressure 29.94 in    
Wind  
Wind Speed 7 mph (SE)    
Max Wind Speed 13 mph    
Max Gust Speed 23 mph    
Visibility 10 miles    
Events      
Averages and records for this station are not official NWS values.
T = Trace of Precipitation, MM = Missing Value Source: NWS Daily Summary

Daily Weather History Graph

Daily Weather History Graph

Search for Another Location

Airport or City:

Trip Planner

Search our weather history database for the weather conditions in past years. The results will help you decide how hot, cold, wet, or windy it might be!

Date:

Astronomy

Dec. 11, 2011 Rise Set
Actual Time 6:48 AM HST 5:46 PM HST
Civil Twilight 6:24 AM HST 6:10 PM HST
Nautical Twilight 5:57 AM HST 6:37 PM HST
Astronomical Twilight 5:30 AM HST 7:04 PM HST
Moon 7:05 PM HST (12/11) 7:45 AM HST (12/11)
Length of Visible Light 11h 45m
Length of Day
10h 57m
Full, 98% of the Moon is Illuminated
Dec 11
Full
Dec 17
Last Quarter
Dec 24
New
Dec 31
First Quarter
Jan 8
Full

Hourly Weather History & Observations

Time (HST) Temp. Heat Index Dew Point Humidity Pressure Visibility Wind Dir Wind Speed Gust Speed Precip Events Conditions
12:53 AM 72.0 °F - 60.1 °F 66% 29.94 in 10.0 mi ESE 8.1 mph - N/A   Clear
1:53 AM 72.0 °F - 57.9 °F 61% 29.94 in 10.0 mi East 3.5 mph - N/A   Clear
2:53 AM 71.1 °F - 59.0 °F 66% 29.92 in 10.0 mi ESE 6.9 mph - N/A   Clear
3:53 AM 70.0 °F - 59.0 °F 68% 29.91 in 10.0 mi East 3.5 mph - N/A   Clear
4:53 AM 70.0 °F - 61.0 °F 73% 29.91 in 10.0 mi ESE 8.1 mph - N/A   Clear
5:53 AM 71.1 °F - 61.0 °F 70% 29.91 in 10.0 mi ESE 8.1 mph - N/A   Clear
6:53 AM 71.1 °F - 59.0 °F 66% 29.93 in 10.0 mi East 6.9 mph - N/A   Clear
7:53 AM 73.0 °F - 59.0 °F 61% 29.95 in 10.0 mi ESE 5.8 mph - N/A   Partly Cloudy
8:53 AM 75.9 °F - 63.0 °F 64% 29.95 in 10.0 mi SSE 8.1 mph - N/A   Clear
9:53 AM 79.0 °F - 62.1 °F 56% 29.96 in 10.0 mi South 12.7 mph - N/A   Clear
10:53 AM 81.0 °F 81.9 °F 62.1 °F 52% 29.94 in 10.0 mi South 11.5 mph - N/A   Partly Cloudy
11:53 AM 80.1 °F 81.9 °F 64.9 °F 60% 29.94 in 10.0 mi SSW 10.4 mph - N/A   Clear
12:53 PM 80.1 °F 81.9 °F 64.9 °F 60% 29.92 in 10.0 mi SW 9.2 mph - N/A   Clear
1:53 PM 79.0 °F - 66.0 °F 64% 29.91 in 10.0 mi West 6.9 mph - N/A   Overcast
2:53 PM 78.1 °F - 66.0 °F 66% 29.92 in 10.0 mi West 5.8 mph - N/A   Overcast
3:53 PM 78.1 °F - 66.9 °F 68% 29.92 in 10.0 mi West 5.8 mph - N/A   Overcast
4:53 PM 80.1 °F 81.2 °F 62.1 °F 54% 29.93 in 10.0 mi NE 12.7 mph 23.0 mph N/A   Overcast
5:53 PM 79.0 °F - 63.0 °F 58% 29.94 in 10.0 mi North 8.1 mph - N/A   Overcast
6:53 PM 78.1 °F - 64.9 °F 64% 29.97 in 10.0 mi ENE 8.1 mph - N/A   Overcast
7:53 PM 77.0 °F - 64.9 °F 66% 29.99 in 10.0 mi West 3.5 mph - N/A   Overcast
8:53 PM 77.0 °F - 66.0 °F 69% 29.98 in 10.0 mi SE 5.8 mph - N/A   Mostly Cloudy
9:53 PM 75.0 °F - 64.9 °F 71% 29.99 in 10.0 mi East 3.5 mph - N/A   Clear
10:53 PM 75.0 °F - 63.0 °F 66% 29.98 in 10.0 mi SE 3.5 mph - N/A   Clear
11:53 PM 73.9 °F - 61.0 °F 64% 29.97 in 10.0 mi Calm Calm - N/A   Clear